Location: Ballingbuur
(53.0000°N, 5.7667°E)
Time: 06:50:19
(UTC+00:00)

Cosmos 1500 Rocket - Pass Details

Date: 29 November 2020
Orbit: 603 x 631 km, 82.5° (Epoch: 23 January)

Event Time Altitude Azimuth Distance (km) Brightness Sun altitude
Rises 06:09:39 0° 216° (SW) 2,850 6.8 -10.7°
Reaches altitude 10° 06:12:02 10° 226° (SW) 1,952 5.9 -10.4°
Maximum altitude 06:15:56 33° 290° (WNW) 1,039 4.2 -9.8°
Drops below altitude 10° 06:19:53 10° 355° (N) 1,975 5.9 -9.3°
Sets 06:22:19 0° 6° (N) 2,889 6.8 -9.0°
